Location: Unspecified
(45.3712°N, 0.6436°E)
Time: 03:14:44
(UTC+01:00)

Envisat - Visible Passes

Search period start: 19 February 2018 00:00
Search period end: 01 March 2018 00:00
Orbit: 764 x 766 km, 98.2° (Epoch: 18 February)

Date Brightness Start Highest point End Pass type
(mag) Time Alt. Az. Time Alt. Az. Time Alt. Az.
19 Feb 3.7 19:30:01 10° SE 19:34:28 32° ENE 19:38:58 10° N visible
19 Feb 4.5 21:08:50 10° SSW 21:13:26 34° W 21:18:05 10° NNW visible
20 Feb 3.1 20:31:30 10° S 20:36:34 74° WSW 20:41:40 10° NNW visible
21 Feb 3.1 19:54:58 10° SSE 19:59:54 53° ENE 20:04:51 10° N visible
21 Feb 5.3 21:35:29 10° SW 21:39:15 21° W 21:43:01 10° NW visible
22 Feb 3.9 19:19:15 10° ESE 19:23:26 27° ENE 19:27:38 10° N visible
22 Feb 4.1 20:57:25 10° S 21:02:14 43° W 21:07:05 10° NNW visible
23 Feb 2.9 20:20:21 10° SSE 20:25:26 89° ENE 20:30:33 10° NNW visible
23 Feb 5.9 22:03:20 10° WSW 22:05:09 12° W 22:06:59 10° WNW visible
24 Feb 3.3 19:44:03 10° SE 19:48:49 43° ENE 19:53:37 10° N visible
24 Feb 5.0 21:23:49 10° SSW 21:28:00 26° W 21:32:12 10° NW visible
25 Feb 4.2 19:08:35 10° ESE 19:12:24 22° ENE 19:16:14 10° NNE visible
25 Feb 3.7 20:46:06 10° S 20:51:03 54° W 20:56:03 10° NNW visible
26 Feb 2.9 20:09:16 10° SSE 20:14:18 72° ENE 20:19:23 10° N visible
26 Feb 5.7 21:50:59 10° WSW 21:53:52 15° W 21:56:46 10° NW visible
27 Feb 3.6 19:33:12 10° SE 19:37:45 35° ENE 19:42:20 10° N visible
27 Feb 4.7 21:12:16 10° SSW 21:16:46 32° W 21:21:18 10° NNW visible
28 Feb 3.3 20:34:51 10° S 20:39:53 68° WSW 20:44:58 10° NNW visible
